Temperature
19 20 21 21 21 21 19 18 18 19 19 20 20 20 20 21 20 20 20 19 19 19 19 19 19 18 18 18 17 17 17 17 16 16 16 16 16 16 16 16 15 15 15 15
20 21 21 21 21 21 21 20 19 20 20 20 21 21 20 20 20 20 20 20 19 19 19 19 19 18 18 18 17 17 17 17 16 16 16 16 16 16 16 15 15 15 15 15
18 19 20 20 21 21 21 20 20 20 20 20 19 20 20 20 20 20 20 20 20 20 20 19 19 19 18 18 18 17 17 17 16 16 16 16 16 16 15 15 15 15 15 15
17 19 19 20 21 21 21 21 20 20 20 20 21 21 21 21 21 21 20 20 20 20 20 19 19 19 18 18 18 17 17 17 16 16 16 16 16 15 15 15 15 15 15 14
16 17 18 20 21 21 21 21 21 20 20 21 22 21 20 21 21 21 21 21 20 20 20 20 19 19 18 18 18 17 17 17 17 16 16 16 16 15 15 15 15 15 14 14
16 18 18 20 22 23 21 20 21 21 20 21 20 18 19 21 21 21 21 21 21 20 20 19 19 19 18 18 17 17 17 17 16 16 16 16 16 15 15 15 15 14 14 14
16 17 18 20 21 22 20 20 22 22 22 21 20 20 22 22 21 21 21 21 20 20 20 20 19 19 18 18 18 18 17 17 16 16 16 16 15 15 15 15 14 14 14 14
16 17 18 20 21 20 20 22 22 23 23 22 22 22 22 22 21 21 21 21 20 20 20 19 19 19 18 18 18 17 17 17 16 16 16 16 15 15 15 15 14 14 14 13
16 18 20 22 22 23 23 23 23 23 23 23 22 22 22 22 21 21 21 20 20 20 19 19 19 19 19 18 18 17 17 17 16 16 16 15 15 15 15 14 14 14 14 13
17 18 19 22 23 23 23 23 23 23 23 23 23 22 22 22 21 21 20 20 20 20 19 19 19 18 18 18 18 17 17 16 16 16 15 15 15 15 14 14 14 14 13 13
17 18 19 21 22 22 22 23 23 23 22 23 23 22 22 21 21 21 20 20 20 19 19 19 18 18 18 18 17 17 16 16 16 16 15 15 15 14 14 14 14 13 13 13
17 18 18 20 22 22 22 22 22 22 22 22 22 22 22 21 21 20 20 20 19 19 19 18 18 18 17 17 17 17 16 16 16 15 15 15 15 14 14 13 13 13 13 12
20 21 21 21 21 21 22 22 22 22 22 21 21 21 21 21 20 20 20 19 19 19 19 18 18 17 17 17 16 16 16 16 15 15 15 15 14 14 14 13 13 12 12 12
20 20 20 21 21 21 21 21 21 21 21 21 21 21 21 20 20 20 19 19 19 18 18 18 18 17 17 16 16 16 16 15 15 15 15 14 14 13 13 13 13 12 12 12
19 20 20 20 20 20 21 21 20 20 21 21 20 20 20 20 20 19 19 19 18 18 18 17 17 17 16 16 16 16 15 15 15 14 14 14 13 13 13 12 12 12 11 11
19 19 19 20 20 20 20 20 20 20 20 20 20 20 20 20 19 19 18 18 18 18 17 17 17 17 16 16 15 15 15 15 14 14 14 13 13 12 12 12 11 11 11 11
18 18 18 19 19 19 19 19 19 19 19 19 19 19 19 19 18 18 18 17 17 17 17 17 16 16 16 15 15 15 14 14 14 13 13 13 12 12 12 11 11 11 10 10
18 18 18 18 18 18 19 19 19 19 19 19 19 18 18 18 18 18 17 17 16 16 16 16 16 15 15 15 14 14 14 13 13 13 12 12 12 11 11 11 11 10 10 9
17 17 18 18 18 18 18 18 18 18 18 18 18 18 17 17 17 17 16 16 16 16 15 15 15 15 14 14 14 14 13 13 13 12 12 12 11 11 11 10 10 10 9 9
16 17 17 17 17 17 17 18 18 17 17 17 17 17 17 16 16 16 16 16 16 15 15 14 14 14 14 13 13 13 13 12 12 12 11 11 11 10 10 9 9 9 9 8
16 16 16 16 16 17 17 17 17 17 17 16 16 16 16 16 16 15 15 15 15 14 14 14 14 13 13 13 12 12 12 12 11 11 11 10 10 9 9 9 9 8 8 8
15 15 15 16 16 16 16 16 16 16 16 16 16 15 15 15 15 15 14 14 14 14 13 13 13 13 12 12 12 11 11 11 11 10 10 10 9 9 9 8 8 8 7 7
14 14 15 15 15 15 15 15 15 15 15 15 15 15 15 15 14 14 14 13 13 13 13 12 12 12 12 11 11 11 10 10 10 10 9 9 9 8 8 8 7 7 7 6
14 14 14 14 14 14 14 14 14 14 14 14 14 14 14 14 13 13 13 13 12 12 12 12 11 11 11 11 10 10 10 9 9 9 9 8 8 7 7 7 6 6 6 6
13 13 13 13 13 13 13 13 13 13 13 13 13 13 13 13 13 12 12 12 11 11 11 11 10 10 10 10 9 9 9 9 8 8 8 7 7 7 6 6 6 5 5 5
12 12 12 12 12 12 12 12 12 12 12 12 12 12 12 12 11 11 11 11 10 10 10 10 9 9 9 9 8 8 8 8 7 7 7 6 6 6 5 5 5 5 4 4
11 11 11 11 11 11 11 11 11 11 11 11 11 10 10 10 10 10 10 10 9 9 9 9 8 8 8 8 7 7 7 7 6 6 6 6 5 5 5 4 4 4 4 3
Wind_Speed
6 6 5 5 6 6 6 8 7 7 7 9 8 8 7 7 8 10 11 12 14 14 13 12 11 11 10 10 9 9 9 8 7 6 6 5 4 4 3 3 4 4 4 3
2 4 3 3 5 6 6 6 6 5 6 7 5 4 5 7 9 11 11 13 14 14 13 13 13 12 11 10 10 10 10 9 7 6 6 5 5 4 4 3 3 3 4 4
3 4 1 4 7 7 5 5 7 7 8 4 5 7 9 9 10 10 11 11 13 13 13 13 13 13 12 11 10 10 10 9 8 7 7 6 5 4 4 4 3 3 3 4
2 1 4 8 6 7 6 5 6 6 6 8 9 8 7 8 10 10 10 11 12 11 12 11 11 11 10 9 10 11 10 9 8 8 7 6 5 5 4 3 4 3 3 4
4 3 5 7 4 5 5 3 5 7 6 6 6 4 1 4 8 9 10 9 10 10 10 10 11 11 11 10 10 10 10 10 9 9 8 7 6 6 4 4 3 3 3 4
4 4 6 8 6 4 5 3 5 7 9 8 8 4 5 6 6 7 7 7 8 8 8 10 10 11 11 11 10 11 11 10 9 9 9 8 8 6 4 4 4 4 3 4
5 5 7 8 4 4 5 7 6 7 9 10 8 8 7 6 6 7 6 7 8 9 8 9 10 12 12 11 12 11 9 9 8 8 8 7 6 5 4 4 4 3 3 2
5 4 7 5 4 6 8 5 4 6 8 9 7 6 6 7 8 7 7 6 8 8 7 6 9 12 11 11 10 8 8 8 8 8 7 6 6 5 4 5 4 3 2 1
8 8 7 5 6 6 5 5 4 5 6 9 8 7 7 7 7 7 8 7 7 8 7 6 7 10 11 9 8 8 8 8 7 7 5 6 6 6 4 4 4 3 3 2
3 5 5 4 3 2 4 5 5 5 7 9 8 8 8 8 7 7 6 7 7 8 8 6 6 8 9 8 9 10 9 8 7 7 5 4 4 5 5 5 5 4 4 3
3 4 1 3 3 4 3 3 4 5 6 8 10 8 8 7 8 8 7 6 8 9 9 7 7 7 7 8 9 9 9 7 7 6 6 4 3 3 5 5 7 7 6 5
6 6 5 6 6 4 4 4 6 6 5 6 8 9 8 8 7 8 8 7 8 8 8 7 7 7 6 7 9 10 8 7 6 5 5 5 4 2 2 1 3 5 6 5
6 5 5 5 5 3 5 5 6 7 7 6 6 7 8 7 7 7 8 9 9 9 9 8 7 7 6 6 8 9 8 7 6 6 6 5 5 5 2 2 3 0 3 4
4 3 2 3 4 3 3 4 4 5 5 7 6 7 7 6 6 8 9 9 9 9 8 8 8 7 6 7 8 8 7 8 7 6 6 5 5 4 4 4 2 1 1 2
4 4 5 4 3 2 2 4 5 4 4 5 6 7 8 8 8 8 8 8 8 8 8 8 8 6 6 7 8 8 7 6 5 5 5 5 4 4 4 4 3 2 0 1
3 1 3 4 4 4 3 5 6 5 5 5 6 6 7 8 8 7 7 9 10 9 8 8 8 6 6 7 8 6 6 7 7 5 5 4 4 4 4 4 3 2 2 2
5 4 3 4 4 5 5 6 7 6 6 7 7 7 7 8 7 7 7 8 8 8 7 8 7 6 6 7 7 6 5 6 7 5 5 5 5 5 4 4 4 3 3 3
8 8 8 8 7 6 5 6 6 6 6 7 8 8 8 9 9 8 7 7 7 5 5 6 6 7 7 7 6 5 5 5 5 5 5 4 5 5 4 4 4 3 2 1
6 6 6 7 7 6 6 6 6 6 6 7 8 8 8 8 8 7 8 8 8 7 4 5 9 8 7 7 7 5 5 5 4 4 4 5 5 4 4 4 3 3 3 2
5 5 5 4 4 5 6 5 6 6 6 7 8 7 7 6 7 8 8 7 6 6 6 7 8 7 6 7 7 5 6 6 5 5 4 4 4 3 3 3 3 3 2 2
5 4 4 4 4 4 6 7 7 6 6 7 8 8 8 7 7 7 8 5 3 4 7 9 7 5 5 6 7 5 5 5 5 5 5 4 4 3 3 3 3 2 2 2
4 4 4 4 4 3 3 5 6 7 6 6 7 7 7 7 7 6 5 5 5 7 6 6 5 7 8 8 5 5 5 5 5 4 4 4 4 4 3 3 2 2 2 2
3 4 5 5 5 4 3 3 5 6 7 7 8 8 7 7 6 7 4 3 4 8 7 5 8 11 11 7 6 6 5 5 5 4 4 4 4 4 3 3 2 2 2 1
3 4 4 4 6 6 5 3 3 4 5 6 6 7 8 6 4 2 4 7 9 10 6 8 11 11 10 6 5 5 5 5 5 4 4 4 3 3 3 3 2 2 2 2
4 4 5 6 5 5 5 5 5 5 5 5 5 5 4 5 6 5 5 6 10 10 6 8 11 10 7 5 5 5 5 5 5 5 4 4 4 3 3 2 2 2 2 1
4 4 4 4 5 5 5 5 5 4 5 5 4 4 4 4 6 6 6 6 8 9 7 5 6 7 5 5 5 5 5 5 5 4 4 4 4 3 3 2 2 2 2 1
4 4 3 3 3 4 5 5 5 5 5 6 6 4 5 5 6 6 7 6 6 6 5 5 5 5 5 5 5 5 4 4 4 4 4 3 3 3 3 3 2 2 2 2
Wind_Direction
230 236 214 216 212 196 183 184 187 219 217 234 222 201 194 183 171 165 169 174 178 181 183 182 182 182 182 183 181 175 170 174 185 187 181 174 172 179 173 167 171 168 153 151
281 253 217 229 224 208 209 196 200 206 236 236 208 163 160 171 172 173 178 183 184 183 182 183 185 185 183 184 181 174 176 183 185 179 176 179 183 179 164 164 166 155 156 155
257 286 27 261 226 204 205 200 180 204 229 200 169 177 180 180 178 183 188 188 186 187 187 188 189 186 185 185 178 175 180 182 180 178 178 184 177 164 168 173 162 163 172 163
174 56 228 244 235 193 190 211 192 194 203 187 187 186 181 178 180 187 188 186 187 187 188 187 185 181 178 172 173 177 180 183 182 179 183 181 170 175 184 177 169 176 183 179
149 199 270 283 250 188 172 232 214 192 191 182 155 105 309 207 183 184 187 186 187 186 182 179 177 175 167 170 173 175 181 185 184 180 181 178 180 187 188 173 174 183 181 180
148 172 227 244 249 192 132 249 251 190 180 163 132 146 233 217 183 175 173 172 172 170 168 172 177 168 165 173 175 184 190 189 183 179 179 183 187 186 178 169 183 183 189 193
172 202 250 249 248 109 154 231 235 189 177 164 174 195 199 178 172 169 163 163 158 155 163 176 171 163 169 175 188 194 187 178 175 177 181 181 179 175 168 165 168 182 197 215
165 189 244 244 145 170 213 223 198 187 178 173 182 172 160 161 163 159 154 152 153 154 162 167 165 165 172 186 191 175 164 167 173 177 179 174 168 174 168 164 169 187 196 245
189 212 237 219 200 211 183 169 180 177 181 168 164 162 160 164 165 165 161 158 154 153 152 154 161 165 173 185 170 157 157 165 168 166 169 168 172 176 171 168 172 185 183 210
205 251 246 239 229 215 183 174 182 173 164 160 161 162 160 163 165 163 162 159 153 146 148 158 165 167 174 170 159 153 158 165 165 163 165 162 167 172 172 178 181 186 193 210
215 244 266 281 245 219 194 154 147 148 155 160 155 159 164 164 166 166 161 156 153 154 158 163 159 159 163 158 152 153 158 159 158 159 157 154 155 174 186 199 193 191 201 200
216 217 193 232 240 212 168 161 160 151 149 156 160 165 165 169 169 164 160 154 151 153 153 155 151 150 155 156 153 153 156 161 162 158 152 147 142 117 44 159 186 192 195 191
208 220 205 223 228 205 181 176 169 163 161 162 161 157 158 163 167 160 158 157 159 160 156 151 147 147 153 154 151 154 160 163 160 157 155 156 154 153 148 25 34 131 203 199
210 178 208 216 215 203 183 181 163 152 153 151 151 146 147 148 151 158 166 169 161 153 151 150 148 155 160 152 148 150 154 160 160 164 164 166 169 171 168 164 170 300 308 232
227 200 205 212 186 172 150 134 129 138 142 137 142 146 152 154 163 171 166 152 145 145 150 152 152 160 158 150 148 148 149 156 160 161 164 167 164 163 164 167 172 188 206 344
224 199 156 160 172 173 153 147 154 169 164 156 153 156 159 158 157 152 149 148 149 159 163 159 160 165 156 149 145 146 151 154 152 155 157 157 158 160 164 167 173 184 200 212
176 193 198 197 198 199 194 185 178 179 172 164 166 155 141 135 134 142 150 156 157 161 162 160 162 156 149 148 146 149 147 155 151 148 159 165 165 170 172 171 177 188 209 201
195 199 199 195 199 201 199 189 182 174 174 174 156 145 144 150 158 163 159 146 135 133 149 158 152 148 147 148 147 147 148 152 157 160 162 163 164 167 166 170 176 179 188 171
212 206 212 210 201 193 191 187 181 174 165 156 151 157 161 161 158 155 147 143 148 160 179 163 150 147 149 153 145 144 147 148 149 152 154 154 153 157 162 165 170 175 174 164
218 210 209 211 196 185 178 172 165 162 161 154 148 149 153 157 152 147 146 155 176 180 169 157 151 151 154 157 145 147 149 151 153 152 148 150 154 158 162 166 168 170 169 171
215 205 190 186 185 180 171 162 157 161 161 155 154 160 162 159 153 149 148 160 193 161 152 149 148 150 151 149 141 144 146 146 147 151 151 149 147 149 154 159 162 165 169 173
201 186 172 162 155 159 165 158 154 155 155 155 153 150 145 146 146 143 152 170 171 152 146 147 148 147 146 137 136 138 139 141 143 144 146 147 149 153 157 159 164 169 169 171
180 175 167 160 157 154 135 137 149 152 157 162 160 157 155 157 155 152 162 177 153 144 141 145 145 142 137 133 135 137 138 139 142 145 148 150 154 158 161 162 162 163 164 169
154 154 155 145 134 127 126 133 129 134 142 149 153 156 150 144 137 144 148 146 143 135 135 139 135 133 129 128 131 134 137 138 140 139 137 138 141 143 146 148 151 153 156 157
146 139 134 130 132 143 146 133 116 114 119 121 120 124 133 143 147 146 136 138 138 131 128 133 131 128 125 127 130 132 135 136 135 134 134 135 135 136 138 143 151 153 151 159
139 140 146 151 151 147 141 133 130 131 128 125 118 113 115 119 125 126 123 125 128 126 124 125 129 126 126 128 127 128 128 127 123 124 131 134 134 133 133 135 140 149 154 157
116 117 116 110 110 124 130 132 136 141 143 141 134 127 123 122 122 122 121 122 123 121 122 122 123 125 125 124 122 121 121 124 128 131 132 133 136 139 143 140 141 144 145 145
Height
1510 1505 1505 1506 1505 1506 1512 1517 1523 1518 1514 1507 1502 1501 1502 1503 1505 1507 1510 1513 1516 1519 1523 1527 1530 1534 1537 1540 1543 1546 1548 1550 1552 1554 1556 1557 1557 1558 1559 1559 1560 1560 1560 1560
1508 1503 1502 1504 1502 1502 1504 1506 1509 1509 1507 1498 1498 1500 1501 1503 1504 1506 1508 1511 1514 1517 1520 1524 1527 1530 1534 1537 1540 1543 1545 1547 1550 1552 1554 1555 1556 1557 1557 1558 1558 1559 1559 1559
1517 1508 1506 1512 1500 1500 1501 1499 1502 1507 1502 1496 1498 1499 1499 1501 1503 1505 1507 1509 1512 1515 1518 1521 1524 1528 1531 1534 1537 1540 1543 1545 1547 1550 1551 1552 1554 1555 1555 1556 1557 1557 1557 1558
1517 1515 1523 1506 1490 1490 1494 1494 1493 1494 1493 1493 1494 1495 1497 1499 1501 1503 1505 1508 1510 1513 1516 1519 1522 1525 1529 1532 1535 1537 1540 1542 1545 1547 1549 1550 1552 1553 1554 1554 1555 1555 1555 1556
1519 1521 1514 1498 1488 1488 1493 1495 1490 1490 1491 1492 1493 1496 1498 1499 1499 1501 1503 1505 1508 1511 1514 1517 1520 1523 1527 1529 1532 1535 1537 1540 1542 1544 1546 1548 1549 1550 1551 1552 1552 1553 1553 1553
1515 1518 1519 1499 1484 1483 1489 1498 1487 1486 1488 1490 1493 1500 1498 1496 1498 1500 1502 1504 1506 1509 1512 1515 1518 1521 1524 1527 1529 1532 1534 1537 1539 1542 1543 1545 1547 1548 1549 1550 1550 1550 1551 1551
1511 1513 1506 1487 1482 1484 1501 1497 1484 1483 1484 1487 1489 1491 1492 1494 1496 1498 1500 1503 1505 1508 1510 1513 1516 1519 1521 1524 1526 1529 1532 1534 1537 1539 1541 1543 1545 1546 1547 1547 1548 1548 1548 1548
1507 1511 1505 1479 1481 1486 1486 1480 1481 1481 1482 1484 1486 1488 1490 1492 1494 1496 1498 1501 1503 1506 1508 1511 1514 1517 1519 1521 1524 1527 1530 1532 1534 1537 1539 1540 1542 1543 1544 1545 1545 1545 1545 1545
1493 1492 1479 1476 1476 1477 1477 1478 1479 1480 1481 1483 1485 1486 1488 1490 1493 1495 1497 1499 1502 1504 1507 1510 1512 1515 1517 1519 1522 1525 1527 1529 1532 1534 1536 1537 1539 1540 1541 1542 1542 1542 1543 1543
1483 1479 1475 1474 1474 1475 1476 1477 1477 1478 1480 1481 1483 1485 1487 1489 1491 1493 1496 1498 1500 1503 1505 1508 1510 1513 1515 1518 1520 1522 1525 1527 1529 1531 1533 1534 1536 1537 1538 1539 1539 1540 1540 1540
1479 1475 1474 1473 1473 1473 1474 1475 1476 1477 1478 1480 1482 1483 1485 1487 1489 1491 1494 1496 1499 1501 1503 1506 1508 1511 1513 1515 1518 1520 1522 1524 1526 1528 1530 1531 1533 1534 1535 1536 1536 1537 1537 1537
1476 1471 1472 1472 1472 1472 1473 1473 1474 1475 1477 1479 1480 1482 1484 1485 1487 1490 1492 1495 1497 1500 1502 1504 1507 1509 1511 1513 1515 1517 1519 1522 1523 1525 1527 1528 1530 1531 1532 1533 1534 1534 1535 1535
1467 1468 1468 1469 1470 1470 1471 1471 1473 1474 1475 1477 1479 1480 1482 1484 1486 1488 1490 1493 1495 1498 1500 1503 1505 1507 1509 1511 1513 1515 1517 1519 1521 1522 1524 1525 1526 1528 1528 1530 1531 1531 1532 1532
1464 1466 1466 1466 1467 1468 1469 1470 1471 1472 1473 1475 1477 1478 1480 1482 1484 1486 1489 1491 1494 1496 1499 1501 1503 1505 1507 1509 1511 1513 1515 1516 1518 1519 1521 1522 1524 1525 1526 1526 1527 1527 1528 1528
1461 1462 1463 1464 1465 1466 1467 1468 1469 1470 1472 1473 1475 1476 1478 1480 1482 1484 1487 1489 1492 1494 1497 1499 1501 1503 1505 1507 1509 1510 1512 1514 1515 1517 1518 1520 1521 1522 1523 1523 1524 1524 1524 1524
1457 1459 1459 1461 1462 1463 1464 1465 1466 1468 1469 1471 1473 1474 1476 1478 1480 1483 1485 1487 1490 1492 1494 1496 1499 1501 1503 1505 1506 1508 1509 1511 1513 1514 1515 1517 1518 1519 1519 1520 1520 1521 1521 1521
1453 1454 1456 1457 1458 1460 1461 1463 1464 1466 1467 1469 1470 1472 1474 1477 1479 1481 1483 1485 1488 1490 1492 1494 1496 1499 1501 1502 1504 1505 1507 1508 1510 1511 1512 1513 1514 1515 1516 1517 1517 1517 1518 1518
1448 1450 1452 1454 1455 1456 1458 1460 1461 1463 1464 1466 1468 1470 1472 1474 1476 1479 1481 1483 1486 1488 1490 1492 1494 1496 1498 1500 1501 1503 1504 1506 1507 1508 1509 1510 1511 1512 1513 1513 1514 1514 1514 1514
1444 1446 1449 1450 1452 1453 1454 1456 1458 1459 1461 1463 1465 1468 1470 1472 1474 1477 1479 1481 1483 1485 1487 1489 1492 1493 1495 1497 1499 1500 1501 1502 1504 1505 1506 1507 1508 1509 1509 1510 1510 1510 1511 1511
1440 1443 1444 1446 1448 1450 1451 1453 1455 1456 1458 1460 1463 1465 1467 1470 1472 1474 1476 1478 1480 1482 1484 1487 1488 1490 1492 1494 1496 1497 1498 1499 1500 1502 1503 1504 1505 1505 1506 1506 1507 1507 1507 1507
1436 1438 1440 1442 1444 1446 1447 1449 1451 1453 1455 1457 1460 1462 1464 1467 1469 1471 1473 1475 1477 1480 1482 1484 1485 1487 1489 1491 1493 1494 1495 1496 1497 1498 1499 1500 1501 1502 1503 1503 1504 1504 1504 1504
1432 1434 1436 1438 1440 1442 1444 1446 1448 1450 1452 1454 1457 1459 1461 1464 1466 1468 1470 1472 1474 1476 1478 1480 1482 1484 1486 1488 1489 1491 1492 1493 1494 1495 1496 1497 1498 1499 1500 1500 1500 1500 1500 1500
1429 1431 1433 1435 1437 1439 1441 1443 1445 1447 1449 1451 1454 1456 1459 1461 1463 1465 1466 1469 1471 1473 1475 1477 1479 1481 1483 1485 1486 1488 1489 1490 1491 1492 1493 1494 1495 1496 1496 1497 1497 1497 1497 1497
1426 1428 1430 1432 1434 1436 1438 1440 1442 1445 1447 1449 1452 1454 1456 1458 1460 1462 1464 1466 1468 1470 1472 1474 1476 1478 1480 1482 1483 1485 1486 1487 1488 1489 1490 1491 1492 1492 1493 1493 1493 1493 1493 1493
1424 1425 1428 1430 1432 1433 1436 1438 1440 1443 1445 1447 1449 1452 1454 1456 1458 1459 1462 1464 1466 1468 1470 1472 1474 1476 1477 1479 1480 1482 1483 1484 1485 1486 1487 1488 1489 1489 1490 1490 1490 1490 1490 1489
1422 1423 1426 1427 1429 1431 1433 1436 1438 1440 1442 1444 1447 1449 1451 1454 1456 1457 1459 1461 1463 1465 1467 1469 1471 1473 1475 1476 1478 1479 1481 1482 1483 1484 1485 1485 1486 1486 1486 1487 1487 1487 1486 1486
1421 1422 1424 1426 1428 1430 1432 1434 1436 1438 1440 1442 1444 1447 1449 1452 1453 1455 1457 1459 1461 1463 1465 1467 1469 1471 1473 1474 1475 1477 1478 1479 1481 1482 1482 1483 1483 1483 1484 1484 1484 1484 1483 1483